1485093601.23,5500,11.63,74214.5,-1.35,-39.47,-39.53,0,*62
1485093602.45,5501,11.63,74212.0,-1.35,-39.47,-39.47,0,*66
1485093603.67,5502,11.63,74212.5,-1.31,-39.47,-39.35,0,*64
1485093604.88,5503,11.63,74212.3,-1.31,-39.47,-39.47,0,*60
1485093606.11,5504,11.63,74210.5,-1.35,-39.47,-39.35,0,*66
1485093607.32,5505,11.63,74214.5,-1.35,-39.35,-39.35,0,*62
1485093608.56,5506,11.63,74212.0,-1.35,-39.53,-39.35,0,*61
1485093609.78,5507,11.63,74214.5,-1.35,-39.35,-39.35,0,*60
1485093611.0,5508,11.63,74214.3,-1.35,-39.35,-39.47,0,*6A
1485093612.24,5509,11.63,74210.8,-1.35,-39.53,-39.47,0,*6B
1485093613.46,5510,11.63,74212.8,-1.35,-39.47,-39.35,0,*63
1485093614.71,5511,11.63,74212.0,-1.35,-39.35,-39.29,0,*6A
1485093615.93,5512,11.63,74210.8,-1.35,-39.47,-39.35,0,*61
1485093617.17,5513,11.63,74212.0,-1.35,-39.53,-39.35,0,*65
1485093618.39,5514,11.63,74210.8,-1.35,-39.35,-39.35,0,*62
1485093619.61,5515,11.63,74208.3,-1.35,-39.47,-39.35,0,*66
1485093620.83,5516,11.63,74212.8,-1.35,-39.35,-39.47,0,*65
1485093622.09,5517,11.63,74208.0,-1.39,-39.53,-39.53,0,*6D
1485093623.37,5518,11.63,74210.8,-1.39,-39.59,-39.41,0,*6B
1485093624.64,5519,11.63,74208.0,-1.35,-39.53,-39.53,0,*6F
1485093625.85,5520,11.63,74212.5,-1.41,-39.65,-39.65,0,*66
1485093627.12,5521,11.63,74214.3,-1.39,-39.53,-39.59,0,*62
1485093628.36,5522,11.63,74212.0,-1.41,-39.59,-39.65,0,*6B
1485093629.59,5523,11.63,74208.0,-1.41,-39.59,-39.47,0,*6A
1485093630.87,5524,11.63,74208.0,-1.39,-39.59,-39.53,0,*67
1485093632.1,5525,11.63,74212.5,-1.41,-39.65,-39.59,0,*6C
1485093633.32,5526,11.63,74208.3,-1.41,-39.59,-39.47,0,*6F
1485093634.57,5527,11.63,74212.0,-1.41,-39.53,-39.41,0,*62
1485093635.76,5528,11.63,74208.5,-1.41,-39.47,-39.47,0,*6E
1485093637.05,5529,11.63,74208.8,-1.43,-39.59,-39.59,0,*6D
1485093638.33,5530,11.63,74210.3,-1.43,-39.41,-39.29,0,*6B
1485093639.6,5531,11.63,74214.3,-1.43,-39.41,-39.41,0,*64
1485093640.86,5532,11.63,74212.8,-1.43,-39.59,-39.47,0,*68
1485093642.11,5533,11.63,74212.5,-1.43,-39.59,-39.47,0,*69
1485093643.33,5534,11.63,74210.5,-1.45,-39.65,-39.65,0,*67
1485093644.54,5535,11.63,74208.8,-1.45,-39.47,-39.65,0,*66
1485093645.79,5536,11.63,74208.5,-1.43,-39.47,-39.41,0,*65
1485093647.06,5537,11.63,74208.8,-1.43,-39.29,-39.29,0,*62
1485093648.34,5538,11.63,74210.8,-1.43,-39.29,-39.29,0,*6D
1485093649.61,5539,11.63,74214.0,-1.43,-39.23,-39.23,0,*6C
1485093650.86,5540,11.63,74214.3,-1.43,-39.47,-39.41,0,*64
1485093652.09,5541,11.63,74212.3,-1.45,-39.15,-39.35,0,*67
1485093653.29,5542,11.63,74210.5,-1.45,-39.35,-39.47,0,*63
1485093654.57,5543,11.63,74206.5,-1.43,-39.23,-39.23,0,*61
1485093655.82,5544,11.63,74212.3,-1.43,-39.47,-39.41,0,*60
1485093657.1,5545,11.63,74214.5,-1.43,-39.41,-39.41,0,*67
1485093658.3,5546,11.63,74208.5,-1.45,-39.65,-39.47,0,*62
1485093659.5,5547,11.63,74212.3,-1.45,-39.47,-39.35,0,*66
1485093660.7,5548,11.63,74214.8,-1.45,-39.35,-39.47,0,*69
1485093661.89,5549,11.63,74214.3,-1.45,-39.35,-39.47,0,*68
1485093663.12,5550,11.63,74212.8,-1.45,-39.35,-39.53,0,*65
1485093664.39,5551,11.63,74208.5,-1.43,-39.23,-39.23,0,*62
1485093665.59,5552,11.63,74212.5,-1.45,-39.35,-39.35,0,*67
1485093666.82,5553,11.63,74212.3,-1.45,-39.35,-39.29,0,*6B
1485093668.05,5554,11.63,74212.8,-1.45,-39.09,-39.29,0,*63
1485093669.29,5555,11.63,74208.0,-1.45,-39.15,-39.09,0,*6D
1485093670.49,5556,11.63,74210.8,-1.45,-38.97,-38.97,0,*63
1485093671.77,5557,11.63,74212.3,-1.43,-38.91,-38.91,0,*64
1485093673.02,5558,11.63,74212.5,-1.45,-39.15,-39.29,0,*62
1485093674.28,5559,11.63,74210.8,-1.45,-39.29,-39.29,0,*6C
1485093675.5,5560,11.63,74212.5,-1.45,-39.35,-39.29,0,*6B
1485093676.76,5561,11.63,74210.0,-1.45,-39.15,-39.15,0,*67
1485093678.0,5562,11.63,74212.3,-1.45,-39.09,-39.15,0,*69
1485093679.26,5563,11.63,74210.0,-1.45,-39.15,-39.29,0,*6A
1485093680.46,5564,11.63,74210.0,-1.45,-39.47,-39.35,0,*67
1485093681.66,5565,11.63,74210.8,-1.45,-39.47,-39.47,0,*63
1485093682.88,5566,11.63,74210.3,-1.45,-39.53,-39.47,0,*65
1485093684.08,5567,11.63,74208.5,-1.45,-39.35,-39.35,0,*61
1485093685.31,5568,11.63,74210.0,-1.45,-39.09,-39.15,0,*63
1485093686.51,5569,11.63,74210.3,-1.45,-38.97,-38.97,0,*6F
1485093687.77,5570,11.63,74210.0,-1.45,-39.15,-39.15,0,*67
1485093689.02,5571,11.63,74208.0,-1.45,-39.53,-39.53,0,*66
1485093690.3,5572,11.63,74214.0,-1.47,-39.53,-39.59,0,*6D
1485093691.59,5573,11.63,74208.5,-1.47,-39.59,-39.59,0,*66
1485093692.87,5574,11.63,74208.5,-1.47,-39.41,-39.53,0,*62
1485093694.14,5575,11.63,74212.8,-1.47,-39.41,-39.53,0,*63
1485093695.42,5576,11.63,74212.0,-1.49,-39.59,-39.53,0,*67
1485093696.69,5577,11.63,74210.8,-1.47,-39.53,-39.41,0,*61
1485093697.97,5578,11.63,74212.8,-1.47,-39.41,-39.53,0,*6E
1485093699.24,5579,11.63,74214.8,-1.47,-39.41,-39.53,0,*6F
1485093700.51,5580,11.63,74214.0,-1.47,-39.53,-39.53,0,*6A
1485093701.73,5581,11.63,74214.5,-1.47,-39.35,-39.35,0,*6B
1485093703.0,5582,11.63,74212.0,-1.49,-39.53,-39.53,0,*66
1485093704.28,5583,11.63,74212.5,-1.49,-39.71,-39.71,0,*67
1485093705.56,5584,11.63,74212.8,-1.49,-39.59,-39.59,0,*60
1485093706.86,5585,11.63,74216.3,-1.47,-39.59,-39.59,0,*6F
1485093708.14,5586,11.63,74214.3,-1.49,-39.59,-39.59,0,*62
1485093709.42,5587,11.63,74214.8,-1.49,-39.59,-39.59,0,*63
1485093710.7,5588,11.63,74208.5,-1.49,-39.59,-39.53,0,*66
1485093711.97,5589,11.63,74208.5,-1.49,-39.41,-39.53,0,*6E
1485093713.24,5590,11.63,74210.8,-1.49,-39.53,-39.41,0,*66
1485093714.49,5591,11.63,74212.3,-1.47,-39.35,-39.41,0,*69
1485093715.76,5592,11.63,74214.8,-1.49,-39.41,-39.41,0,*67
1485093717.03,5593,11.63,74208.5,-1.49,-39.41,-39.41,0,*66
1485093718.25,5594,11.63,74210.5,-1.51,-39.29,-39.47,0,*60
1485093719.49,5595,11.63,74212.3,-1.51,-39.29,-39.29,0,*69
1485093720.74,5596,11.63,74212.3,-1.51,-39.41,-39.41,0,*6A
1485093721.99,5597,11.63,74212.8,-1.51,-39.41,-39.41,0,*6B
1485093723.21,5598,11.63,74210.3,-1.51,-39.41,-39.47,0,*62
1485093724.43,5599,11.63,74214.5,-1.53,-39.47,-39.47,0,*67
1485093725.7,5600,11.63,74212.3,-1.53,-39.29,-39.29,0,*64
1485093726.96,5601,11.63,74212.8,-1.53,-39.09,-39.29,0,*67
1485093728.2,5602,11.63,74214.5,-1.51,-39.29,-39.29,0,*64
1485093729.49,5603,11.63,74214.8,-1.53,-39.59,-39.59,0,*67
1485093730.72,5604,11.63,74208.5,-1.51,-39.47,-39.59,0,*6D
1485093731.97,5605,11.63,74214.3,-1.53,-39.41,-39.47,0,*67
1485093733.17,5606,11.63,74212.0,-1.51,-39.47,-39.47,0,*60
1485093734.4,5607,11.63,74214.5,-1.51,-39.65,-39.59,0,*6E
1485093735.65,5608,11.63,74210.5,-1.53,-39.65,-39.59,0,*63
1485093736.88,5609,11.63,74210.8,-1.51,-39.59,-39.47,0,*60
1485093738.16,5610,11.63,74214.3,-1.53,-39.41,-39.59,0,*6C
1485093739.42,5611,11.63,74212.8,-1.53,-39.47,-39.59,0,*6B
1485093740.64,5612,11.63,74210.3,-1.53,-39.47,-39.47,0,*67
1485093741.93,5613,11.63,74212.5,-1.53,-39.59,-39.59,0,*66
1485093743.18,5614,11.63,74214.0,-1.53,-39.47,-39.41,0,*67
1485093744.43,5615,11.63,74208.3,-1.55,-39.53,-39.53,0,*66
1485093745.64,5616,11.63,74210.8,-1.55,-39.65,-39.65,0,*65
1485093746.85,5617,11.63,74210.0,-1.55,-39.65,-39.65,0,*64
1485093748.06,5618,11.63,74214.5,-1.55,-39.65,-39.65,0,*6B
1485093749.27,5619,11.63,74214.3,-1.55,-39.65,-39.65,0,*6A
1485093750.5,5620,11.63,74210.3,-1.55,-39.53,-39.65,0,*65
1485093751.71,5621,11.63,74210.0,-1.59,-39.47,-39.65,0,*6D
1485093752.94,5622,11.63,74208.8,-1.55,-39.47,-39.53,0,*67
1485093754.19,5623,11.63,74210.0,-1.55,-39.53,-39.53,0,*63
1485093755.44,5624,11.63,74208.0,-1.59,-39.53,-39.53,0,*68
1485093756.67,5625,11.63,74214.0,-1.59,-39.47,-39.53,0,*6C
1485093757.88,5626,11.63,74210.0,-1.59,-39.47,-39.65,0,*6A
1485093759.09,5627,11.63,74210.8,-1.59,-39.65,-39.65,0,*6B
1485093760.32,5628,11.63,74214.3,-1.55,-39.47,-39.53,0,*6D
1485093761.57,5629,11.63,74214.8,-1.59,-39.53,-39.53,0,*65
1485093762.82,5630,11.63,74210.8,-1.59,-39.53,-39.53,0,*6D
1485093764.06,5631,11.63,74212.8,-1.59,-39.71,-39.65,0,*69
1485093765.31,5632,11.63,74208.8,-1.59,-39.53,-39.53,0,*6F
1485093766.54,5633,11.63,74210.5,-1.59,-39.53,-39.65,0,*6B
1485093767.79,5634,11.63,74208.3,-1.59,-39.53,-39.53,0,*69
1485093769.04,5635,11.63,74212.5,-1.63,-39.41,-39.53,0,*62
1485093770.33,5636,11.63,74212.5,-1.61,-39.59,-39.59,0,*60
1485093771.62,5637,11.63,74208.5,-1.61,-39.59,-39.71,0,*6B
1485093772.9,5638,11.63,74212.0,-1.61,-39.53,-39.71,0,*6E
1485093774.17,5639,11.63,74208.8,-1.63,-39.79,-39.71,0,*65
1485093775.43,5640,11.63,74208.3,-1.63,-39.71,-39.71,0,*63
1485093776.67,5641,11.63,74208.8,-1.63,-39.53,-39.53,0,*62
1485093777.9,5642,11.63,74210.8,-1.63,-39.35,-39.41,0,*62
1485093779.15,5643,11.63,74208.0,-1.63,-39.41,-39.41,0,*60
1485093780.44,5644,11.63,74210.5,-1.61,-39.59,-39.59,0,*65
1485093781.73,5645,11.63,74210.0,-1.61,-39.71,-39.71,0,*64
1485093782.99,5646,11.63,74208.3,-1.63,-39.71,-39.59,0,*6F
1485093784.24,5647,11.63,74206.8,-1.63,-39.41,-39.41,0,*64
1485093785.46,5648,11.63,74210.8,-1.63,-39.35,-39.41,0,*68
1485093786.72,5649,11.63,74210.5,-1.63,-39.03,-39.15,0,*6D
1485093787.98,5650,11.63,74210.5,-1.63,-39.15,-39.15,0,*62
1485093789.26,5651,11.63,74210.3,-1.61,-39.03,-39.03,0,*61
1485093790.5,5652,11.63,74210.8,-1.61,-38.97,-39.03,0,*6E
1485093791.72,5653,11.63,74210.5,-1.63,-38.97,-39.03,0,*6D
1485093792.98,5654,11.63,74208.5,-1.63,-39.03,-39.15,0,*61
1485093794.24,5655,11.63,74208.5,-1.63,-39.15,-39.23,0,*62
1485093795.49,5656,11.69,74214.3,-1.63,-39.41,-39.41,0,*64
1485093796.71,5657,11.63,74210.5,-1.63,-39.35,-39.41,0,*66
1485093797.96,5658,11.63,74208.0,-1.63,-39.23,-39.23,0,*6A
1485093799.16,5659,11.63,74208.8,-1.63,-38.97,-38.97,0,*6B
1485093800.42,5660,11.63,74208.8,-1.61,-38.79,-38.73,0,*69
1485093801.67,5661,11.63,74208.8,-1.63,-38.91,-38.91,0,*60
1485093802.92,5662,11.63,74208.0,-1.63,-38.91,-39.15,0,*6E
1485093804.18,5663,11.63,74210.0,-1.63,-39.23,-39.23,0,*62
1485093805.43,5664,11.63,74208.0,-1.63,-39.15,-39.03,0,*62
1485093806.69,5665,11.63,74206.8,-1.63,-38.91,-38.91,0,*64
1485093807.91,5666,11.63,74210.5,-1.63,-39.23,-39.35,0,*60
1485093809.17,5667,11.69,74210.0,-1.63,-39.15,-39.15,0,*66
1485093810.43,5668,11.63,74206.8,-1.63,-39.03,-39.15,0,*6E
1485093811.68,5669,11.63,74208.8,-1.61,-39.35,-39.41,0,*69
1485093812.92,5670,11.63,74210.8,-1.61,-39.23,-39.35,0,*65
1485093814.18,5671,11.63,74210.0,-1.63,-39.15,-39.15,0,*61
1485093815.41,5672,11.69,74214.3,-1.63,-38.97,-39.15,0,*69
1485093816.67,5673,11.63,74210.5,-1.63,-39.15,-39.15,0,*63
1485093817.89,5674,11.63,74210.0,-1.63,-39.23,-39.35,0,*63
1485093819.12,5675,11.63,74210.3,-1.63,-39.35,-39.41,0,*66
1485093820.39,5676,11.63,74210.5,-1.65,-39.41,-39.29,0,*6E
1485093821.67,5677,11.63,74210.0,-1.65,-39.23,-39.23,0,*61
1485093822.94,5678,11.63,74208.0,-1.65,-39.29,-39.41,0,*60
1485093824.17,5679,11.63,74208.0,-1.65,-39.09,-39.09,0,*6F
1485093825.39,5680,11.63,74208.0,-1.65,-38.97,-38.97,0,*69
1485093826.67,5681,11.69,74212.5,-1.65,-39.03,-39.03,0,*68
1485093827.92,5682,11.63,74210.8,-1.65,-39.03,-39.09,0,*61
1485093829.19,5683,11.69,74212.5,-1.65,-39.23,-39.41,0,*6E
1485093830.45,5684,11.69,74212.3,-1.63,-39.15,-39.23,0,*6E
1485093831.7,5685,11.63,74208.0,-1.63,-39.23,-39.23,0,*6A
1485093832.93,5686,11.69,74210.3,-1.63,-39.41,-39.35,0,*6A
1485093834.15,5687,11.63,74210.8,-1.63,-39.23,-39.35,0,*6F
1485093835.37,5688,11.63,74208.0,-1.67,-39.29,-39.35,0,*6E
1485093836.64,5689,11.63,74210.8,-1.65,-39.29,-39.29,0,*60
1485093837.91,5690,11.63,74210.8,-1.65,-39.29,-39.23,0,*62
1485093839.19,5691,11.69,74208.3,-1.65,-39.23,-39.29,0,*63
1485093840.46,5692,11.69,74208.3,-1.65,-39.29,-39.41,0,*64
1485093841.71,5693,11.69,74210.0,-1.65,-39.47,-39.59,0,*64
1485093843.0,5694,11.69,74210.0,-1.65,-39.41,-39.59,0,*65
1485093844.19,5695,11.69,74212.5,-1.67,-39.47,-39.35,0,*6A
1485093845.47,5696,11.69,74214.8,-1.65,-39.41,-39.29,0,*60
1485093846.74,5697,11.63,74210.3,-1.65,-39.29,-39.41,0,*61
1485093847.94,5698,11.69,74208.3,-1.67,-39.35,-39.47,0,*67
1485093849.14,5699,11.63,74210.0,-1.67,-39.47,-39.47,0,*63
1485093850.41,5700,11.63,74210.3,-1.65,-39.41,-39.29,0,*6E
1485093851.69,5701,11.69,74208.3,-1.65,-39.29,-39.41,0,*6F
1485093852.89,5702,11.63,74206.8,-1.67,-39.47,-39.47,0,*60
1485093854.08,5703,11.63,74208.0,-1.67,-39.35,-39.47,0,*64
1485093855.28,5704,11.69,74210.3,-1.67,-39.35,-39.47,0,*63
1485093856.48,5705,11.63,74208.0,-1.67,-39.35,-39.47,0,*62
1485093857.72,5706,11.69,74212.0,-1.67,-39.53,-39.53,0,*64
1485093858.95,5707,11.69,74208.5,-1.67,-39.53,-39.65,0,*60
1485093860.18,5708,11.63,74206.3,-1.67,-39.53,-39.65,0,*6F
1485093861.41,5709,11.69,74212.5,-1.67,-39.47,-39.53,0,*6E
1485093862.61,5710,11.69,74208.3,-1.67,-39.47,-39.47,0,*63
1485093863.85,5711,11.69,74210.3,-1.69,-39.29,-39.35,0,*61
1485093865.07,5712,11.63,74208.0,-1.69,-39.35,-39.47,0,*6A
1485093866.35,5713,11.69,74208.8,-1.69,-39.53,-39.59,0,*64
1485093867.6,5714,11.69,74208.5,-1.69,-39.53,-39.65,0,*6C
1485093868.88,5715,11.69,74210.3,-1.69,-39.53,-39.71,0,*68
1485093870.15,5716,11.69,74212.0,-1.69,-39.53,-39.53,0,*6B
1485093871.42,5717,11.69,74210.3,-1.69,-39.53,-39.53,0,*6A
1485093872.67,5718,11.69,74208.8,-1.69,-39.47,-39.53,0,*60
1485093873.92,5719,11.69,74210.0,-1.69,-39.53,-39.65,0,*61
1485093875.17,5720,11.63,74208.8,-1.69,-39.47,-39.53,0,*6B
1485093876.42,5721,11.63,74210.0,-1.71,-39.53,-39.53,0,*66
1485093877.68,5722,11.63,74208.5,-1.71,-39.71,-39.71,0,*65
1485093878.94,5723,11.63,74208.0,-1.71,-39.71,-39.59,0,*6E
1485093880.19,5724,11.63,74208.5,-1.71,-39.41,-39.53,0,*60
1485093881.45,5725,11.69,74208.3,-1.71,-39.59,-39.53,0,*68
1485093882.71,5726,11.69,74210.0,-1.71,-39.59,-39.71,0,*6B
1485093883.98,5727,11.69,74208.8,-1.71,-39.79,-39.79,0,*60
1485093885.25,5728,11.69,74208.8,-1.71,-39.59,-39.71,0,*65
1485093886.51,5729,11.69,74214.5,-1.71,-39.59,-39.71,0,*64
1485093887.78,5730,11.69,74214.0,-1.73,-39.53,-39.71,0,*64
1485093889.06,5731,11.69,74210.3,-1.73,-39.53,-39.59,0,*6F
1485093890.32,5732,11.69,74214.3,-1.75,-39.59,-39.59,0,*60
1485093891.56,5733,11.63,74208.0,-1.73,-39.53,-39.47,0,*62
1485093892.79,5734,11.63,74208.8,-1.75,-39.41,-39.47,0,*60
1485093894.06,5735,11.69,74210.8,-1.73,-39.41,-39.53,0,*62
1485093895.28,5736,11.69,74212.3,-1.75,-39.41,-39.47,0,*62
1485093896.55,5737,11.69,74208.0,-1.73,-39.53,-39.41,0,*60
1485093897.79,5738,11.69,74208.0,-1.75,-39.47,-39.59,0,*65
1485093899.01,5739,11.69,74210.0,-1.75,-39.41,-39.47,0,*6D
1485093900.28,5740,11.69,74214.3,-1.73,-39.41,-39.41,0,*63
1485093901.48,5741,11.69,74210.8,-1.75,-39.47,-39.47,0,*64
1485093902.68,5742,11.69,74210.0,-1.75,-39.47,-39.47,0,*67
1485093903.93,5743,11.69,74210.3,-1.73,-39.23,-39.35,0,*67
1485093905.19,5744,11.69,74212.8,-1.75,-39.15,-39.15,0,*61
1485093906.44,5745,11.63,74208.5,-1.75,-39.15,-39.23,0,*65
1485093907.7,5746,11.63,74206.3,-1.75,-39.15,-39.15,0,*63
1485093908.94,5747,11.69,74210.8,-1.75,-39.47,-39.59,0,*6D
1485093910.16,5748,11.69,74210.0,-1.75,-39.41,-39.47,0,*6B
1485093911.44,5749,11.69,74208.3,-1.73,-39.53,-39.71,0,*6A
1485093912.72,5750,11.69,74210.5,-1.73,-39.59,-39.59,0,*62
1485093913.96,5751,11.63,74204.5,-1.75,-39.65,-39.79,0,*68
1485093915.17,5752,11.69,74208.5,-1.75,-39.65,-39.65,0,*66
1485093916.41,5753,11.69,74210.8,-1.75,-39.59,-39.65,0,*68
1485093917.67,5754,11.69,74210.0,-1.77,-39.47,-39.59,0,*6D
1485093918.9,5755,11.69,74208.5,-1.75,-39.47,-39.59,0,*6E
1485093920.15,5756,11.69,74210.0,-1.75,-39.29,-39.29,0,*62
1485093921.41,5757,11.69,74208.0,-1.75,-39.23,-39.29,0,*69
1485093922.66,5758,11.63,74204.3,-1.75,-39.23,-39.23,0,*6C
1485093923.93,5759,11.69,74210.0,-1.73,-39.15,-39.23,0,*6E
1485093925.17,5760,11.69,74208.8,-1.75,-39.47,-39.59,0,*68
1485093926.43,5761,11.69,74210.8,-1.75,-39.59,-39.79,0,*64
1485093927.66,5762,11.69,74206.8,-1.75,-39.59,-39.47,0,*6A
1485093928.9,5763,11.69,74214.5,-1.81,-39.79,-39.91,0,*69
1485093930.16,5764,11.69,74208.5,-1.81,-39.59,-39.71,0,*62
1485093931.42,5765,11.69,74208.5,-1.77,-39.59,-39.65,0,*6F
1485093932.66,5766,11.69,74210.0,-1.81,-39.79,-39.91,0,*6C
1485093933.9,5767,11.69,74208.0,-1.77,-39.65,-39.65,0,*62
1485093935.15,5768,11.69,74210.3,-1.81,-39.71,-39.79,0,*6C
1485093936.44,5769,11.69,74208.8,-1.77,-39.59,-39.59,0,*6C
1485093937.7,5770,11.69,74210.5,-1.81,-39.79,-39.79,0,*6D
1485093938.91,5771,11.69,74210.5,-1.81,-39.91,-39.91,0,*6C
1485093940.15,5772,11.69,74210.3,-1.81,-39.97,-39.97,0,*6F
1485093941.4,5773,11.69,74210.5,-1.81,-39.97,-39.97,0,*6E
1485093942.65,5774,11.69,74212.8,-1.81,-39.71,-39.79,0,*61
1485093943.91,5775,11.69,74212.8,-1.81,-39.79,-39.79,0,*68
1485093945.14,5776,11.69,74210.8,-1.81,-39.91,-39.79,0,*6D
1485093946.4,5777,11.69,74210.0,-1.81,-39.71,-39.79,0,*62
1485093947.6,5778,11.69,74210.8,-1.81,-39.91,-39.91,0,*65
1485093948.81,5779,11.69,74210.5,-1.81,-39.91,-39.91,0,*64
1485093950.04,5780,11.69,74208.5,-1.83,-39.91,-39.91,0,*60
1485093951.33,5781,11.69,74210.5,-1.83,-39.79,-39.79,0,*61
1485093952.59,5782,11.69,74210.5,-1.85,-39.59,-39.79,0,*66
1485093953.85,5783,11.63,74202.3,-1.83,-39.79,-39.91,0,*65
1485093955.1,5784,11.69,74206.5,-1.85,-39.97,-39.97,0,*62
1485093956.36,5785,11.69,74208.5,-1.85,-39.59,-39.79,0,*61
1485093957.58,5786,11.69,74210.3,-1.85,-39.65,-39.59,0,*6F
1485093958.78,5787,11.69,74208.3,-1.85,-39.85,-39.85,0,*61
1485093960.0,5788,11.69,74212.5,-1.85,-39.97,-39.91,0,*68
1485093961.28,5789,11.69,74210.3,-1.83,-39.97,-39.97,0,*69
1485093962.48,5790,11.69,74210.0,-1.85,-40.03,-40.15,0,*60
1485093963.67,5791,11.69,74212.8,-1.85,-40.03,-40.15,0,*61
1485093964.92,5792,11.69,74208.0,-1.89,-40.21,-40.09,0,*63
1485093966.14,5793,11.69,74208.5,-1.87,-40.03,-40.15,0,*61
1485093967.41,5794,11.69,74210.3,-1.87,-39.97,-39.97,0,*61
1485093968.65,5795,11.69,74214.0,-1.87,-40.03,-39.97,0,*63
1485093969.88,5796,11.69,74210.8,-1.89,-40.03,-40.09,0,*67
1485093971.11,5797,11.69,74214.0,-1.89,-40.03,-40.09,0,*66
1485093972.3,5798,11.69,74214.3,-1.89,-40.03,-40.03,0,*63
1485093973.49,5799,11.69,74208.8,-1.89,-40.03,-40.03,0,*62
1485093974.78,5800,11.69,74214.3,-1.91,-40.09,-40.09,0,*64
1485093976.06,5801,11.69,74214.5,-1.91,-40.09,-40.09,0,*65
1485093977.33,5802,11.69,74216.3,-1.91,-39.97,-40.09,0,*6F
1485093978.59,5803,11.69,74214.3,-1.91,-39.91,-39.97,0,*61
1485093979.85,5804,11.69,74208.8,-1.91,-39.91,-39.97,0,*66
1485093981.08,5805,11.69,74210.5,-1.91,-39.91,-39.91,0,*61
1485093982.33,5806,11.69,74212.8,-1.91,-39.97,-39.91,0,*64
1485093983.59,5807,11.69,74208.0,-1.91,-39.79,-39.91,0,*65
1485093984.87,5808,11.69,74214.5,-1.91,-39.71,-39.79,0,*64
1485093986.13,5809,11.69,74212.3,-1.91,-39.79,-39.91,0,*6B
1485093987.41,5810,11.69,74214.5,-1.91,-39.71,-39.71,0,*65
1485093988.7,5811,11.69,74212.3,-1.91,-39.79,-39.79,0,*64
1485093989.96,5812,11.69,74212.0,-1.93,-39.59,-39.71,0,*6F
1485093991.24,5813,11.69,74214.3,-1.91,-39.71,-39.79,0,*6E
1485093992.52,5814,11.69,74214.8,-1.91,-39.59,-39.59,0,*61
1485093993.77,5815,11.69,74212.5,-1.93,-39.53,-39.59,0,*68
1485093995.03,5816,11.69,74214.0,-1.93,-39.59,-39.71,0,*6B
1485093996.29,5817,11.69,74212.0,-1.93,-39.59,-39.71,0,*6A
1485093997.54,5818,11.69,74212.8,-1.93,-39.53,-39.59,0,*65
1485093998.81,5819,11.69,74212.3,-1.91,-39.53,-39.59,0,*66
1485094000.07,5820,11.69,74210.3,-1.93,-39.59,-39.71,0,*6E
1485094001.32,5821,11.69,74210.5,-1.93,-39.53,-39.59,0,*6F
1485094002.57,5822,11.69,74208.5,-1.93,-39.53,-39.59,0,*6C
1485094003.83,5823,11.69,74208.0,-1.91,-39.53,-39.53,0,*65
1485094005.1,5824,11.69,74214.0,-1.91,-39.53,-39.53,0,*62
1485094006.32,5825,11.69,74210.5,-1.93,-39.35,-39.29,0,*6C
1485094007.54,5826,11.69,74212.3,-1.93,-39.47,-39.53,0,*67
1485094008.8,5827,11.69,74208.0,-1.93,-39.59,-39.71,0,*69
1485094010.06,5828,11.69,74208.8,-1.93,-39.71,-39.79,0,*64
1485094011.31,5829,11.69,74210.8,-1.93,-39.71,-39.79,0,*65
1485094012.57,5830,11.69,74210.5,-1.93,-39.59,-39.59,0,*65
1485094013.83,5831,11.69,74208.8,-1.93,-39.71,-39.59,0,*6E
1485094015.08,5832,11.69,74210.8,-1.95,-39.65,-39.79,0,*6C
1485094016.33,5833,11.69,74208.5,-1.93,-39.53,-39.59,0,*6C
1485094017.58,5834,11.69,74212.0,-1.93,-39.53,-39.59,0,*6B
1485094018.83,5835,11.69,74208.3,-1.95,-39.85,-39.79,0,*65
1485094020.12,5836,11.69,74212.0,-1.95,-39.79,-39.79,0,*65
1485094021.35,5837,11.69,74208.0,-1.95,-39.65,-39.65,0,*64
1485094022.61,5838,11.69,74212.5,-1.95,-39.59,-39.65,0,*64
1485094023.84,5839,11.69,74210.8,-1.95,-39.65,-39.65,0,*6A
1485094025.07,5840,11.69,74208.8,-1.97,-39.65,-39.79,0,*6B
1485094026.33,5841,11.69,74212.5,-1.95,-39.65,-39.79,0,*68
1485094027.56,5842,11.69,74212.8,-1.97,-39.79,-39.85,0,*67
1485094028.81,5843,11.69,74210.3,-1.95,-39.79,-39.85,0,*64
1485094030.01,5844,11.69,74214.3,-1.97,-39.85,-39.85,0,*62
1485094031.23,5845,11.69,74210.5,-1.97,-39.85,-39.97,0,*60
1485094032.49,5846,11.69,74210.5,-1.95,-39.59,-39.85,0,*63
1485094033.72,5847,11.69,74212.8,-1.97,-39.79,-39.85,0,*62
1485094034.92,5848,11.69,74208.0,-1.97,-39.65,-39.65,0,*6E
1485094036.15,5849,11.69,74208.3,-1.97,-39.79,-39.85,0,*6C
1485094037.37,5850,11.69,74210.5,-1.99,-39.85,-40.03,0,*69
1485094038.61,5851,11.69,74212.3,-1.99,-39.91,-39.91,0,*68
1485094039.84,5852,11.69,74208.5,-1.99,-39.91,-39.91,0,*6B
1485094041.06,5853,11.69,74212.8,-1.99,-39.91,-40.03,0,*6F
1485094042.26,5854,11.69,74210.5,-2.01,-39.85,-39.85,0,*6F
1485094043.5,5855,11.69,74212.0,-1.99,-39.91,-39.91,0,*6C
1485094044.7,5856,11.69,74212.5,-2.01,-39.85,-39.91,0,*68
1485094045.93,5857,11.69,74210.3,-1.99,-39.85,-40.03,0,*6E
1485094047.13,5858,11.69,74208.3,-2.01,-39.85,-39.91,0,*66
1485094048.35,5859,11.69,74214.5,-2.01,-39.71,-39.85,0,*69
1485094049.55,5860,11.69,74208.8,-2.01,-39.85,-39.85,0,*68
1485094050.78,5861,11.69,74212.0,-2.01,-39.71,-39.85,0,*62
1485094052.01,5862,11.69,74212.5,-2.01,-39.85,-39.71,0,*61
1485094053.26,5863,11.69,74208.5,-2.01,-39.71,-39.71,0,*6B
1485094054.49,5864,11.69,74210.5,-2.01,-39.85,-39.71,0,*67
1485094055.72,5865,11.69,74210.0,-2.05,-39.71,-39.91,0,*67
1485094056.99,5866,11.69,74212.3,-2.05,-39.79,-39.79,0,*6A
1485094058.25,5867,11.69,74208.8,-2.05,-39.79,-39.79,0,*6B
1485094059.53,5868,11.69,74208.3,-2.07,-39.71,-39.71,0,*66
1485094060.79,5869,11.69,74212.0,-2.05,-39.71,-39.71,0,*65
1485094062.08,5870,11.69,74212.8,-2.07,-39.79,-39.79,0,*6F
1485094063.37,5871,11.69,74214.0,-2.07,-39.71,-39.71,0,*6E
1485094064.59,5872,11.69,74212.8,-2.05,-39.65,-39.53,0,*6A
1485094065.82,5873,11.69,74216.3,-2.05,-39.65,-39.71,0,*6B
1485094067.06,5874,11.69,74212.5,-2.05,-39.79,-39.91,0,*6F
1485094068.32,5875,11.69,74214.3,-2.05,-39.79,-39.79,0,*68
1485094069.59,5876,11.69,74214.8,-2.05,-39.79,-39.79,0,*6B
1485094070.85,5877,11.69,74214.3,-2.05,-39.71,-39.71,0,*6A
1485094072.1,5878,11.69,74214.8,-2.05,-39.71,-39.79,0,*6D
1485094073.36,5879,11.69,74212.0,-2.05,-39.71,-39.79,0,*6C
1485094074.63,5880,11.69,74214.3,-2.05,-39.79,-39.79,0,*62
1485094075.92,5881,11.69,74212.3,-2.07,-39.79,-39.79,0,*61
1485094077.2,5882,11.69,74212.3,-2.07,-39.71,-39.71,0,*62
1485094078.44,5883,11.69,74212.8,-2.07,-39.65,-39.65,0,*63
1485094079.7,5884,11.69,74212.8,-2.07,-39.65,-39.71,0,*61
1485094080.96,5885,11.69,74212.0,-2.07,-39.65,-39.79,0,*68
1485094082.21,5886,11.69,74212.5,-2.07,-39.65,-39.71,0,*63
1485094083.5,5887,11.69,74212.0,-2.07,-39.71,-39.79,0,*6F
1485094084.79,5888,11.69,74214.3,-2.07,-39.71,-39.79,0,*60
1485094086.07,5889,11.69,74212.0,-2.07,-39.71,-39.79,0,*61
1485094087.33,5890,11.69,74214.5,-2.09,-39.79,-39.71,0,*67
1485094088.59,5891,11.69,74212.5,-2.09,-39.79,-39.71,0,*66
1485094089.84,5892,11.69,74212.0,-2.09,-39.71,-39.53,0,*6D
1485094091.09,5893,11.69,74208.0,-2.07,-39.65,-39.53,0,*67
1485094092.34,5894,11.69,74208.0,-2.07,-39.65,-39.53,0,*60
1485094093.56,5895,11.69,74212.5,-2.07,-39.35,-39.47,0,*61
1485094094.79,5896,11.69,74210.3,-2.07,-39.35,-39.47,0,*62
1485094095.98,5897,11.69,74210.3,-2.05,-39.35,-39.47,0,*61
1485094097.23,5898,11.69,74210.0,-2.07,-39.35,-39.53,0,*69
1485094098.5,5899,11.69,74210.8,-2.07,-39.53,-39.53,0,*68
1485094099.74,5900,11.69,74208.0,-2.07,-39.65,-39.65,0,*69
1485094100.97,5901,11.69,74208.8,-2.07,-39.65,-39.65,0,*68
1485094102.23,5902,11.69,74210.0,-2.09,-39.59,-39.59,0,*65
1485094103.49,5903,11.69,74208.5,-2.09,-39.59,-39.59,0,*64
1485094104.78,5904,11.69,74214.0,-2.07,-39.79,-39.79,0,*6D
1485094106.01,5905,11.69,74210.5,-2.09,-39.85,-39.97,0,*61
1485094107.24,5906,11.69,74208.3,-2.09,-39.79,-39.85,0,*62